User: anonymous   Login
Location: The D'Auria's Ocala Star Observatory
(29.0276°N, 82.1742°W)
Time: 13:38:57
(UTC-05:00)
Language:

Okean 3 Rocket - Orbit

View from above orbital plane
View from above orbital plane
View from above satellite
View from above satellite

Ground track
Ground track

The orbit data is extracted from the following two-line orbital elements,

1 21398U 91039B   14353.16907356  .00000779  00000-0  10131-3 0  9327
2 21398 082.5225 354.0705 0019972 288.6374 126.1188 14.79323927269202
Epoch (UTC): 19 December 2014 04:03:27
Eccentricity: 0.0019972
inclination: 82.5225°
perigee height: 617 km
apogee height: 645 km
right ascension of ascending node: 354.0705°
argument of perigee: 288.6374°
revolutions per day: 14.79323927
mean anomaly at epoch: 126.1188°
orbit number at epoch: 26920

The dashed part of the orbit path shows where the satellite is in the earth's shadow,  

DLR